Location: La Pernelle
(49.6188°N, 1.2999°W)
Time: 12:04:30
(UTC+00:00)

Cosmos 1954 Rocket - Pass Details

Date: 29 October 2021
Orbit: 751 x 782 km, 74.0° (Epoch: 26 November)

Event Time Altitude Azimuth Distance (km) Brightness Sun altitude
Rises 20:20:35 0° 325° (NW) 3,247 8.0 -34.6°
Reaches altitude 10° 20:23:29 10° 310° (NW) 2,321 7.2 -35.0°
Maximum altitude 20:27:17 21° 263° (W) 1,702 6.2 -35.6°
Enters shadow 20:28:50 18° 240° (WSW) 1,817 6.2 -35.8°
